User: anonymous   Login
Location: Unspecified
(0.0000°N, 0.0000°E)
Time: 10:31:29
(UTC+00:00)
Language:

METEOR-M - Orbit

View from above orbital plane
View from above orbital plane
View from above satellite
View from above satellite

Ground track
Ground track

The orbit data is extracted from the following two-line orbital elements,

1 35865U 09049A   20219.46761180  .00000005  00000-0  21075-4 0  9990
2 35865  98.4412 204.3897 0003350  60.1419 300.0092 14.22245177565029
Epoch (UTC): 06 August 2020 11:13:21
Eccentricity: 0.0003350
inclination: 98.4412°
perigee height: 815 km
apogee height: 820 km
right ascension of ascending node: 204.3897°
argument of perigee: 60.1419°
revolutions per day: 14.22245177
mean anomaly at epoch: 300.0092°
orbit number at epoch: 56502

The dashed part of the orbit path shows where the satellite is in the earth's shadow,  

DLR